Lapse_Rate
6.7 6.5 6.5 6.5 6.5 6.5 6.5 6.5 6.5 6.5 6.5 6.5 6.5 6.5 6.5 6.1 5.9 5.6 5.4 5.6 5.8 6.1 6.3 7.3 8.0 8.9 8.9 7.9 7.0 7.0 6.7 6.7 6.0 5.0 4.6 4.3 4.1 4.9 4.7 6.1 7.6 8.1 8.2 8.3
6.5 6.5 6.5 6.5 6.5 6.5 6.5 6.5 6.5 6.5 6.5 6.5 6.5 6.5 6.5 6.2 6.0 5.6 5.6 5.5 5.6 6.1 6.1 6.7 7.1 8.1 7.7 7.2 7.5 7.1 6.8 6.7 6.1 6.1 6.1 6.1 5.9 5.7 5.7 6.2 7.3 8.1 8.1 8.2
6.5 6.5 6.6 6.5 6.5 6.5 6.5 6.5 6.5 6.5 6.5 6.5 6.5 6.5 6.5 6.5 6.1 6.1 6.2 5.9 6.1 5.8 6.1 5.9 6.0 6.0 6.2 6.8 7.1 6.8 6.6 7.2 7.1 6.8 6.0 5.7 5.5 5.1 5.3 5.6 5.8 6.4 8.3 8.1
6.5 6.6 6.5 6.5 6.5 6.5 6.5 6.5 6.5 6.5 6.5 6.5 6.5 6.5 6.5 6.5 6.5 6.2 5.5 5.2 5.5 5.8 6.7 7.3 7.6 8.1 7.8 6.8 6.6 7.1 7.4 7.1 7.5 6.5 5.7 5.7 5.3 5.2 5.3 5.6 5.7 6.4 7.9 7.7
6.5 6.5 6.5 6.5 6.5 6.5 6.5 6.5 6.5 6.5 6.5 6.5 6.5 6.5 6.5 6.5 6.5 6.5 5.4 5.4 5.5 5.7 6.2 6.3 6.5 8.0 8.2 6.9 6.5 5.8 6.5 7.2 6.7 6.4 6.0 5.1 5.2 5.0 5.4 5.8 6.2 6.6 6.6 7.7
6.5 7.0 6.5 6.5 6.5 6.5 6.5 6.5 6.5 6.5 6.5 6.5 6.5 6.5 6.5 6.5 6.5 6.5 5.6 5.5 5.7 5.9 6.0 6.7 7.6 8.2 7.5 7.0 6.9 7.1 6.9 6.8 6.6 6.2 6.1 5.8 5.3 5.3 5.8 5.9 6.3 6.3 6.0 5.9
6.5 6.5 6.5 6.7 6.5 6.5 6.5 6.5 6.5 6.5 6.5 6.5 6.5 6.5 6.5 6.5 6.5 6.5 6.0 5.1 5.3 5.4 5.7 6.0 6.7 6.3 7.2 7.6 7.1 6.9 6.6 6.2 6.4 6.3 6.2 6.1 5.7 5.4 5.6 5.9 6.3 6.2 7.1 6.7
6.5 6.5 6.5 6.5 6.5 6.5 6.5 6.5 6.5 6.5 6.5 6.5 6.5 6.5 6.5 6.5 5.8 6.7 6.3 4.8 5.0 5.5 5.5 5.8 6.6 6.5 6.8 7.2 6.7 6.6 6.3 6.1 6.4 6.4 6.2 6.2 6.2 5.4 5.7 6.0 6.7 7.4 7.7 7.8
6.5 6.5 6.5 6.5 6.5 6.5 6.5 6.5 6.5 6.5 6.5 6.5 6.5 6.5 6.5 6.5 6.5 6.3 5.9 5.1 5.1 5.5 5.8 6.4 6.8 6.5 6.4 6.4 6.4 6.5 6.3 6.3 6.4 6.5 6.2 6.2 6.1 6.3 6.7 7.1 7.7 7.7 7.8 8.6
6.5 6.5 6.5 6.5 6.6 6.5 6.5 6.5 6.5 6.5 6.5 6.5 6.5 6.5 6.5 6.5 6.5 6.5 6.2 5.7 5.7 6.4 6.4 6.3 6.6 6.5 6.4 6.8 6.4 6.5 6.5 6.4 6.4 6.2 6.1 7.0 6.4 6.9 7.3 7.7 7.7 7.9 8.1 8.2
6.5 6.5 6.5 6.5 6.5 6.5 6.5 6.5 6.5 6.5 6.5 6.5 6.5 6.5 6.5 6.5 6.5 6.5 5.6 5.1 5.1 5.1 5.5 5.6 5.9 6.6 6.5 6.5 6.3 6.3 6.3 6.3 6.2 6.3 6.4 6.4 6.7 7.3 7.8 8.1 8.0 8.2 8.2 8.3
6.5 6.5 6.5 6.5 6.5 6.5 6.5 6.5 6.5 6.5 6.5 6.5 6.5 6.5 6.5 6.5 6.0 5.6 5.3 5.6 5.5 6.1 6.1 5.3 6.1 6.4 6.3 6.1 6.1 6.0 6.2 6.1 6.3 6.4 6.5 6.9 7.5 7.9 7.8 8.2 8.4 8.3 8.1 8.3
6.5 6.5 6.5 6.5 6.5 6.5 6.5 6.5 6.5 6.5 6.5 6.5 6.5 6.5 6.5 5.8 6.2 6.1 6.4 6.8 6.0 6.6 5.9 5.7 6.1 5.8 5.9 6.1 6.1 6.4 6.3 6.1 6.4 6.7 7.1 7.7 7.7 7.8 8.1 8.1 8.1 8.5 8.2 8.0
6.4 6.5 6.5 6.5 6.5 6.5 6.5 6.5 6.5 6.5 6.5 6.5 6.5 6.5 6.5 6.5 6.5 5.6 5.4 5.5 5.3 5.8 6.6 5.9 5.7 5.9 5.8 6.0 6.3 6.4 6.3 6.6 6.9 7.6 7.5 7.3 7.5 8.0 8.4 8.2 8.3 8.6 9.2 9.1
6.5 6.5 6.5 6.5 6.5 6.5 6.5 6.5 6.5 6.5 6.5 6.5 6.5 6.5 6.5 6.5 6.5 5.9 6.4 6.8 7.0 6.6 6.7 6.6 6.0 5.6 6.0 6.2 6.2 6.3 6.5 7.1 7.6 7.7 7.3 7.6 8.2 8.0 8.0 8.7 9.1 8.9 9.2 9.2
6.5 6.5 6.5 6.5 6.5 6.5 6.5 6.5 6.5 6.5 6.5 6.5 6.5 6.5 6.6 6.5 5.6 5.7 5.7 5.9 6.0 6.2 6.6 6.5 6.6 6.6 6.6 6.4 6.2 6.7 7.2 7.7 7.8 7.7 7.9 8.1 8.0 8.5 8.7 8.8 8.9 9.1 9.1 9.1
6.5 6.5 6.5 6.5 6.5 6.5 6.5 6.5 6.5 6.5 6.5 6.5 6.5 6.5 6.3 6.5 6.1 5.6 5.2 5.6 6.0 6.5 6.3 6.4 6.6 6.6 6.5 6.4 7.0 7.1 7.5 7.5 7.6 7.9 7.9 8.2 8.9 8.7 8.9 8.9 9.0 8.8 8.7 8.5
6.5 6.5 6.5 6.5 6.5 6.5 6.5 6.5 6.5 6.5 6.5 6.5 6.5 6.5 6.2 6.2 5.9 6.2 5.6 5.6 6.5 5.8 6.4 6.6 6.4 6.3 6.3 6.6 7.1 7.5 6.9 7.2 8.1 7.7 7.8 8.6 9.0 8.9 9.0 8.9 8.9 8.5 8.3 7.8
6.4 6.5 6.5 6.5 6.5 6.5 6.5 6.5 6.5 6.5 6.5 6.5 6.5 6.4 5.9 5.9 5.6 5.6 6.0 6.2 6.5 7.1 6.7 6.5 6.4 6.6 6.4 6.9 7.3 7.0 7.2 7.7 7.9 7.9 8.3 8.8 9.0 8.8 8.6 8.2 7.9 7.6 7.6 7.4
6.5 6.5 6.5 6.5 6.5 6.5 6.5 6.5 6.9 6.6 6.5 6.0 6.2 6.1 6.0 5.5 6.5 6.4 5.9 7.1 7.3 6.9 6.4 6.5 6.8 7.0 6.9 7.1 7.1 7.1 7.3 7.4 7.8 8.1 8.8 8.9 8.7 8.5 8.1 7.8 7.4 7.6 7.5 7.2
6.5 6.5 6.5 6.5 6.5 6.5 6.5 6.3 6.9 6.5 6.5 5.9 6.1 6.1 5.8 6.3 5.1 5.6 6.3 6.6 6.5 6.6 7.1 7.1 6.9 6.7 6.9 7.2 7.4 7.0 7.2 7.4 7.8 8.4 8.8 8.8 8.3 8.1 8.1 7.7 7.6 7.4 7.0 6.8
6.5 6.5 6.5 6.5 6.5 6.5 6.3 6.6 6.5 6.0 5.0 6.1 6.2 6.1 5.8 5.7 6.2 6.3 6.2 6.4 6.4 6.9 7.1 7.4 6.8 6.8 7.0 7.3 7.2 7.0 7.0 7.9 8.4 8.8 8.6 8.4 8.0 8.3 8.2 7.6 7.3 6.9 6.6 6.4
6.5 6.5 6.5 6.5 6.5 5.9 5.8 5.7 5.7 5.9 5.9 6.1 5.7 5.7 5.9 6.1 6.2 6.3 6.1 6.7 6.8 7.2 6.9 7.2 6.8 7.0 7.1 7.2 7.1 6.8 7.7 8.7 8.5 8.4 8.1 8.2 8.3 8.1 8.1 7.5 6.6 6.3 6.1 6.3
6.5 5.7 6.5 6.5 6.5 6.0 5.9 6.4 6.7 6.4 6.1 6.2 6.3 6.3 6.4 6.1 5.9 6.2 6.3 6.3 6.6 7.0 7.0 7.2 7.3 7.2 7.2 7.3 7.3 7.3 8.4 8.7 8.5 7.9 7.8 8.1 8.0 7.8 7.4 6.6 5.9 5.7 5.7 5.8
6.2 6.1 6.5 6.5 5.9 5.9 6.2 6.3 6.5 6.8 6.6 6.6 6.8 6.6 6.1 6.3 6.3 6.7 6.5 6.6 7.1 7.1 7.1 7.3 7.1 7.0 7.0 7.4 7.0 7.6 8.8 8.5 7.9 7.7 8.0 7.9 7.6 6.9 6.3 6.0 5.1 5.4 5.6 6.6
6.0 6.5 6.5 6.5 6.2 6.1 6.1 6.6 7.0 6.7 6.6 6.5 6.9 6.9 6.8 6.7 6.5 6.8 6.7 7.2 7.3 6.9 6.8 7.4 7.3 6.7 6.6 7.4 7.6 7.6 8.6 8.3 7.7 7.9 7.8 7.1 6.7 6.3 6.1 5.3 4.4 4.7 6.9 7.2
Wind_Speed
3 2 6 5 4 5 7 8 8 8 6 2 7 11 8 13 8 7 7 7 8 9 9 7 5 2 2 2 5 5 7 6 5 4 3 3 4 4 4 9 15 15 11 12
3 6 4 3 4 4 7 9 9 2 7 2 7 12 9 15 11 9 9 8 9 7 9 8 8 5 3 4 1 4 6 5 4 3 2 2 3 3 4 7 10 12 13 13
7 4 3 2 1 5 7 7 7 7 2 8 7 11 14 9 10 8 7 7 7 9 8 9 9 8 7 5 1 4 4 5 4 5 2 3 4 3 4 4 4 5 15 14
5 5 2 2 6 7 7 8 6 6 5 3 3 5 4 11 9 9 9 8 8 8 6 1 3 2 1 2 4 3 2 5 5 6 4 6 4 4 4 4 4 6 13 12
1 1 2 4 2 6 4 4 4 5 7 8 8 3 4 11 7 10 10 9 8 7 7 7 7 4 2 3 3 5 5 7 6 6 6 4 5 4 4 5 8 8 6 12
7 3 2 5 3 3 3 5 8 4 4 4 10 7 4 6 11 9 10 10 10 9 8 6 4 2 2 2 3 2 5 7 6 7 7 7 8 7 6 6 7 6 5 5
9 8 4 2 3 4 4 4 2 3 3 3 6 4 4 7 6 3 12 11 10 9 7 6 6 5 3 1 2 4 6 6 6 7 8 8 8 8 8 7 6 7 6 6
4 4 5 4 2 4 6 2 3 4 2 2 4 5 4 7 7 4 4 10 9 8 7 7 6 3 1 5 6 6 6 6 7 7 8 7 8 4 5 6 7 8 9 9
6 4 4 4 4 2 3 3 3 4 8 4 5 3 4 4 5 4 5 8 8 7 6 6 6 4 5 5 6 5 6 7 7 8 6 7 7 7 8 9 10 8 9 9
2 2 1 4 2 4 3 5 2 2 3 4 4 6 3 4 5 4 6 6 6 5 6 4 3 5 4 4 4 6 6 7 7 7 6 7 7 7 9 10 11 12 12 12
3 3 3 1 6 2 3 3 4 1 2 3 3 2 2 7 3 9 8 9 9 9 9 8 7 3 5 5 5 5 6 7 7 7 7 7 7 9 10 10 10 11 12 13
4 3 4 3 4 5 3 4 3 2 4 3 2 5 8 8 7 7 8 7 7 4 1 6 3 4 6 5 6 6 7 7 7 7 7 8 10 10 10 11 13 11 11 13
5 3 4 2 2 2 3 4 4 5 2 5 1 5 6 7 5 5 3 2 1 2 7 3 3 3 5 6 7 7 7 7 7 7 9 10 10 10 12 11 13 14 14 17
3 3 4 3 3 2 4 3 4 4 2 4 6 14 9 10 6 7 7 6 7 4 2 3 4 4 5 6 7 7 7 7 8 10 9 9 12 14 13 13 15 16 18 18
2 3 5 8 9 8 8 10 10 12 12 7 12 12 14 6 6 5 4 3 1 5 5 4 4 5 6 7 7 7 7 9 8 9 9 12 11 12 16 18 17 18 16 17
3 2 4 4 6 3 7 13 12 12 12 13 14 14 6 3 6 6 6 7 7 6 5 6 6 7 7 7 7 7 9 9 8 10 11 11 14 15 17 18 17 18 18 19
4 2 2 4 2 8 8 4 2 3 4 4 6 7 4 6 6 7 8 8 7 5 5 6 6 6 6 7 8 9 9 8 11 10 12 15 16 17 18 18 18 18 19 18
2 2 2 3 6 3 2 4 4 1 4 7 7 6 5 4 6 5 8 9 3 6 6 6 5 6 7 7 8 8 7 10 12 10 14 15 16 18 18 18 19 20 17 18
2 3 2 1 3 8 9 4 5 5 4 7 8 8 7 9 8 7 6 5 4 5 4 4 5 6 7 7 7 7 9 9 11 12 15 16 16 20 19 20 19 18 17 17
0 4 2 2 2 4 5 4 2 1 2 9 12 11 11 8 6 4 8 2 2 4 4 5 6 7 7 7 7 8 9 10 12 15 17 16 18 19 19 19 19 18 17 17
3 3 5 5 4 5 4 6 0 2 4 7 7 6 6 5 5 9 8 6 4 4 6 6 6 6 7 7 8 8 9 10 13 16 16 19 19 19 19 19 17 17 18 17
6 5 4 3 3 5 5 3 1 4 6 6 6 7 9 9 11 10 8 5 5 5 5 5 6 6 7 7 8 8 11 12 14 17 18 19 19 16 15 19 17 17 16 16
2 5 1 2 4 2 6 6 6 7 4 4 6 8 10 12 10 9 5 3 3 5 5 5 6 7 7 7 7 10 11 14 16 17 19 19 19 17 16 17 17 13 14 11
5 5 3 3 2 7 8 10 10 8 7 9 8 9 10 12 8 7 5 4 4 4 5 5 6 7 8 8 7 9 12 15 16 18 19 17 17 19 16 13 12 11 12 12
3 7 3 7 8 5 7 10 12 15 13 12 12 11 8 10 6 5 4 4 4 4 4 5 6 6 8 9 8 9 12 14 16 17 17 17 14 15 15 13 12 11 13 14
4 5 4 4 7 5 8 9 11 12 11 9 11 13 10 7 4 4 4 3 3 4 5 5 6 7 9 10 10 7 12 14 16 16 14 13 12 12 11 11 12 22 22 23
Wind_Direction
186 263 222 253 243 6 330 305 297 297 112 179 247 264 251 178 188 214 209 196 180 187 137 151 160 185 177 138 60 26 52 28 28 24 5 360 331 322 340 324 310 310 318 319
183 230 36 41 25 339 300 284 282 126 131 168 270 275 239 172 182 194 205 212 189 182 149 173 173 200 243 353 69 39 19 13 0 9 295 283 280 299 294 294 301 306 315 302
251 45 94 327 247 276 259 262 298 337 19 229 251 276 250 183 165 186 214 200 207 184 177 181 184 191 167 218 238 71 358 319 316 307 335 328 330 322 320 296 298 291 289 296
276 67 335 286 279 285 289 17 10 322 320 278 138 289 266 148 158 187 198 217 210 179 185 225 74 82 347 344 351 122 291 331 308 344 348 320 289 289 273 287 276 287 289 295
52 128 196 263 329 24 57 359 323 311 291 301 255 220 312 129 192 202 201 203 206 180 184 200 200 142 26 4 9 27 331 297 322 332 304 292 288 280 280 289 300 297 289 279
270 77 323 12 74 2 45 279 244 247 247 254 231 172 196 178 206 192 190 193 194 191 191 184 117 137 227 130 64 328 307 288 299 295 299 300 291 288 294 289 290 292 285 287
199 203 113 278 254 165 219 276 274 228 191 258 69 189 295 114 86 22 175 177 180 171 166 163 184 211 170 38 274 257 267 287 295 309 300 296 294 296 299 303 304 304 304 297
269 183 173 123 300 357 200 329 307 304 8 359 75 234 207 90 78 63 96 151 148 154 163 177 193 208 189 257 255 268 284 299 299 296 299 298 303 306 307 306 306 301 297 296
349 105 86 19 13 349 115 208 3 298 264 267 234 178 93 110 91 109 114 123 147 161 168 186 193 219 232 252 263 296 309 293 299 301 315 317 319 313 302 303 305 303 302 306
41 277 318 114 256 204 275 338 253 223 270 282 313 344 89 160 149 178 160 167 164 160 196 183 225 247 254 275 299 296 296 305 309 316 316 315 309 310 310 312 311 308 307 306
320 256 137 124 199 137 163 225 216 293 261 274 319 247 111 125 116 176 187 196 189 185 192 200 209 257 288 283 289 313 326 320 316 315 316 315 312 311 306 299 300 299 297 296
56 332 285 64 60 28 328 318 334 195 309 298 226 268 59 82 87 37 30 26 46 46 237 184 157 253 268 311 326 326 322 317 315 320 320 315 307 301 303 301 294 296 316 322
3 230 300 128 136 151 258 230 233 312 93 222 156 268 125 101 106 164 174 207 254 321 307 170 238 298 337 330 329 326 322 324 325 325 315 306 304 308 308 310 320 316 318 312
333 289 281 278 352 190 277 249 225 238 237 269 234 286 332 333 32 52 33 47 18 354 323 12 332 330 342 331 325 323 325 326 322 313 310 323 323 312 315 315 312 307 298 293
272 278 328 315 307 286 272 273 267 253 245 255 286 294 306 6 31 347 350 336 247 255 270 306 3 351 327 323 325 325 323 318 312 313 321 310 305 320 314 302 300 296 293 292
116 290 359 287 255 348 278 264 266 270 273 270 280 283 129 12 333 327 315 356 322 311 333 14 354 334 327 329 323 322 313 311 312 317 313 320 321 310 303 297 293 294 294 293
191 231 1 264 339 331 282 289 5 346 298 284 269 279 359 359 329 324 332 326 304 321 33 357 333 329 329 324 320 313 311 327 326 319 320 315 305 303 306 302 300 299 296 295
266 203 228 267 308 241 73 43 360 277 280 278 274 278 8 0 349 330 292 287 16 32 355 338 331 330 324 319 311 309 338 325 312 317 313 305 306 306 305 307 302 299 295 295
248 312 285 226 243 305 297 42 23 31 301 1 40 19 354 344 332 315 68 37 12 332 344 343 338 330 321 307 311 328 321 311 309 309 313 308 310 312 305 303 301 298 294 292
286 292 284 237 225 247 39 127 11 298 272 18 8 351 337 347 323 292 347 218 297 13 9 341 335 317 308 310 323 317 309 315 320 321 315 312 312 308 303 300 299 295 293 289
180 187 209 230 248 257 302 93 356 327 281 343 342 330 330 313 256 290 302 306 26 18 349 342 325 313 308 317 315 312 316 322 324 312 315 313 305 303 302 299 296 294 291 288
170 174 197 197 225 268 115 99 271 269 319 315 357 338 316 299 301 302 301 336 18 346 343 332 320 313 312 311 317 324 330 323 318 318 312 310 305 306 305 301 299 297 295 291
237 215 224 197 207 308 195 223 294 33 6 332 306 292 289 297 301 301 305 344 344 343 338 336 326 309 315 321 334 334 322 325 317 315 312 309 308 311 307 309 305 303 300 296
225 207 206 13 269 325 323 358 349 340 321 314 303 305 299 300 279 302 308 0 360 341 342 331 322 322 321 331 338 329 321 315 319 316 314 312 315 317 316 310 307 307 304 299
298 328 260 264 298 304 14 351 335 327 324 318 313 303 293 306 295 310 347 3 337 346 337 339 321 325 326 324 324 311 324 323 321 318 314 317 316 318 314 311 309 311 308 320
220 256 250 281 16 352 331 320 309 319 314 328 320 315 312 304 255 336 340 357 348 358 327 311 334 330 321 316 313 325 330 325 319 319 320 318 320 318 316 316 318 322 333 353